Retour au catalogue

STARLINK-31083

ActifCommunicationsVLEO
NORAD 58670·PAYLOAD·🇺🇸 United States

Lancé Dec 29, 2023 depuis Cape Canaveral Space Force Station

Loading…

Prochains Passages (prochaines 24 heures)

TLE

FraisSource: CelesTrak SupGP

Époque: Sep 14, 2026, 22:24 UTC

1 58670C 23211D   26257.93381944  .00009469  00000+0  34308-3 0  2573
2 58670  43.0027  96.1823 0001602 272.7081 356.3570 15.27564575    16

Suivez STARLINK-31083 en temps réel avec AllMySat

Download on the App Store